Weather History for Jacksonville, FL

Change the Weather History Date:

Saturday, November 3, 2012

  Actual Average Record
Temperature  
Mean Temperature 68 °F 65 °F  
Max Temperature 83 °F 76 °F 86 °F (2004)
Min Temperature 52 °F 54 °F 30 °F (1954)
Degree Days  
Heating Degree Days 0 3  
Month to date heating degree days 12 8  
Since 1 July heating degree days 44 36  
Cooling Degree Days 3 3  
Month to date cooling degree days 3 9  
Year to date cooling degree days 2732 2592  
Growing Degree Days 17 (Base 50)    
Moisture  
Dew Point 55 °F    
Average Humidity 69    
Maximum Humidity 100    
Minimum Humidity 37    
Precipitation  
Precipitation 0.00 in 0.07 in 2.50 in (1894)
Month to date precipitation 0.00 0.22  
Year to date precipitation 50.83 47.70  
Snow  
Snow 0.00 in 0.00 in 0.00 in (2002)
Month to date snowfall 0.0 0.0  
Since 1 July snowfall 0.0 0.0  
Since 1 September snowfall 0.0 0.0  
Snow Depth 0.00 in    
Sea Level Pressure  
Sea Level Pressure 30.08 in    
Wind  
Wind Speed 3 mph (WSW)    
Max Wind Speed 10 mph    
Max Gust Speed -    
Visibility 7 miles    
Events Fog    
T = Trace of Precipitation, MM = Missing Value Source: NWS Daily Summary

Daily Weather History Graph

Daily Weather History Graph

Search for Another Location

Airport:

Trip Planner

Search our weather history database for the weather conditions in past years. The results will help you decide how hot, cold, wet, or windy it might be!

Date:

Astronomy

Nov. 03, 2012 Rise Set
Actual Time 7:43 AM EDT 6:36 PM EDT
Civil Twilight 7:18 AM EDT 7:01 PM EDT
Nautical Twilight 6:49 AM EDT 7:30 PM EDT
Astronomical Twilight 6:21 AM EDT 7:58 PM EDT
Moon 10:23 PM EDT (11/3) 11:39 AM EDT (11/3)
Length of Visible Light 11h 43m
Length of Day
10h 53m
Waning Gibbous, 80% of the Moon is Illuminated
Nov 3
Waning Gibbous
Nov 6
Last Quarter
Nov 13
New
Nov 20
First Quarter
Nov 28
Full

Hourly Weather History & Observations

Time (EDT) Temp. Heat Index Dew Point Humidity Pressure Visibility Wind Dir Wind Speed Gust Speed Precip Events Conditions
12:56 AM 59.0 °F - 53.1 °F 81% 30.03 in 10.0 mi WSW 6.9 mph - N/A   Clear
1:56 AM 57.0 °F - 53.1 °F 87% 30.03 in 10.0 mi WSW 4.6 mph - N/A   Clear
2:56 AM 55.9 °F - 54.0 °F 93% 30.04 in 10.0 mi SW 3.5 mph - N/A   Clear
3:56 AM 54.0 °F - 52.0 °F 93% 30.04 in 8.0 mi Calm Calm - N/A   Clear
4:56 AM 55.0 °F - 54.0 °F 96% 30.04 in 6.0 mi WSW 3.5 mph - N/A   Clear
5:56 AM 54.0 °F - 53.1 °F 97% 30.05 in 6.0 mi SW 3.5 mph - N/A   Clear
6:56 AM 54.0 °F - 53.1 °F 97% 30.07 in 5.0 mi Calm Calm - N/A   Partly Cloudy
7:56 AM 53.1 °F - 53.1 °F 100% 30.09 in 2.0 mi WSW 3.5 mph - N/A   Scattered Clouds
8:04 AM 53.6 °F - 53.6 °F 100% 30.09 in 0.5 mi WSW 3.5 mph - N/A   Mostly Cloudy
8:11 AM 53.6 °F - 53.6 °F 100% 30.09 in 0.1 mi WSW 3.5 mph - N/A   Mostly Cloudy
8:38 AM 57.2 °F - 55.4 °F 94% 30.10 in 0.1 mi West 6.9 mph - N/A Fog Fog
8:56 AM 57.0 °F - 57.0 °F 100% 30.11 in 0.1 mi West 6.9 mph - N/A Fog Fog
9:07 AM 57.2 °F - 57.2 °F 100% 30.11 in 0.1 mi West 5.8 mph - N/A Fog Fog
9:38 AM 59.0 °F - 59.0 °F 100% 30.12 in 0.1 mi West 5.8 mph - N/A Fog Fog
9:56 AM 59.0 °F - 59.0 °F 100% 30.13 in 0.5 mi West 6.9 mph - N/A Fog Fog
10:14 AM 60.8 °F - 60.8 °F 100% 30.13 in 2.0 mi West 4.6 mph - N/A   Overcast
10:24 AM 60.8 °F - 60.8 °F 100% 30.13 in 4.0 mi West 4.6 mph - N/A   Mostly Cloudy
10:34 AM 60.8 °F - 60.8 °F 100% 30.13 in 5.0 mi West 3.5 mph - N/A   Scattered Clouds
10:56 AM 62.1 °F - 60.1 °F 93% 30.13 in 9.0 mi Calm Calm - N/A   Partly Cloudy
11:56 AM 72.0 °F - 57.0 °F 59% 30.12 in 10.0 mi WSW 4.6 mph - N/A   Clear
12:56 PM 77.0 °F - 53.1 °F 43% 30.10 in 10.0 mi Variable 5.8 mph - N/A   Clear
1:56 PM 79.0 °F - 54.0 °F 42% 30.08 in 10.0 mi West 8.1 mph - N/A   Clear
2:56 PM 81.0 °F 80.5 °F 54.0 °F 39% 30.05 in 10.0 mi Calm Calm - N/A   Clear
3:56 PM 82.0 °F 81.3 °F 54.0 °F 38% 30.04 in 10.0 mi WNW 3.5 mph - N/A   Clear
4:56 PM 82.0 °F 81.3 °F 54.0 °F 38% 30.04 in 10.0 mi NW 3.5 mph - N/A   Clear
5:56 PM 80.1 °F 80.1 °F 55.0 °F 42% 30.04 in 10.0 mi Calm Calm - N/A   Clear
6:56 PM 69.1 °F - 57.0 °F 65% 30.05 in 10.0 mi Calm Calm - N/A   Clear
7:56 PM 66.0 °F - 55.9 °F 70% 30.07 in 10.0 mi SSE 3.5 mph - N/A   Clear
8:56 PM 64.0 °F - 55.0 °F 73% 30.07 in 10.0 mi Calm Calm - N/A   Clear
9:56 PM 63.0 °F - 55.0 °F 75% 30.08 in 10.0 mi SSE 3.5 mph - N/A   Clear
10:56 PM 63.0 °F - 55.0 °F 75% 30.08 in 10.0 mi Calm Calm - N/A   Clear
11:56 PM 60.1 °F - 54.0 °F 80% 30.08 in 10.0 mi South 3.5 mph - N/A   Clear